Погода в Канеловской

Россия / Краснодарский край     46°35′22″N   39°11′25″E
темп.,
°C
ветер,
м/с
пор.,
м/с
влажн.,
%
обл.,
%
осадки,
мм/ч
давл.,
гПа
погр.,
м
20 июня, вс
вс2000:00+23в819461 0.0 1013725
03:00+20всв7184680 0.0 1013571
06:00+17всв51462100 0.0 1013396
09:00+22всв715585 0.0 1013671
12:00+27в7114697 0.0 10121185
15:00+30вюв612430 0.0 10121790
18:00+30юв135564 0.0 1010718
21:00+25св2371100 0.0 101035
21 июня, пн
пн2100:00+24вюв612631 0.0 1011318
03:00+21в512510 0.0 1011280
06:00+19в512610 0.0 1012302
09:00+24в69540 0.0 1012555
12:00+28в79470 0.0 10111242
15:00+31вюв712400 0.0 10101611
18:00+30в48530 0.0 1009308
21:00+26в71542100 0.0 1010406
22 июня, вт
вт2200:00+24в6153519 0.0 1011416
03:00+21в514415 0.0 1011306
06:00+19в513582 0.0 1012281
09:00+25в713490 0.0 1012587
12:00+29в811403 0.0 10111422
15:00+32вюв612363 0.0 10101912
18:00+31юв4649100 0.0 1010231
21:00+25юв1165100 0.0 101011
23 июня, ср
ср2300:00+24ю3366100 0.0 101156
03:00+24юв1166100 0.0 101216
06:00+23в22745 0.0 101346
09:00+28св44515 0.0 1013465
12:00+31всв45395 0.0 10131205
15:00+32в35401 0.0 10131589
18:00+32с134599 0.0 1012623
21:00+25зсз12615 0.0 101216
24 июня, чт
чт2400:00+23ююв3475100 0.0 101362
03:00+22ююв2375100 0.0 101346
06:00+22ююв2379100 0.0 101499
09:00+26всв2163100 0.0 1015506
12:00+28всв3448100 0.0 1015625
15:00+30в563697 0.0 10141054
18:00+30ссв234896 0.0 1014429
21:00+21с498132 1.1 1014130